,,Stat6,,Stat2,,Stat8,,Stat9,,Stat10,,Wind1,,Wind1,
time,status,PA1M_AVG,status,PR1M_SUM,status,RH1M_AVG,status,SR1M_AVG,status,TA1M_AVG,status,W1dAve1m,status,W1sAve1m,
2004-09-08, 00:00:00,VALID,918.714,VALID,0,VALID,97.8271,VALID,-0.0339617,VALID,18.1131,VALID,53,VALID,0.61849,
2004-09-08, 00:01:00,VALID,918.713,VALID,0,VALID,98.9219,VALID,-0.0339617,VALID,18.1706,VALID,90,VALID,0.709635,
2004-09-08, 00:02:00,VALID,918.701,VALID,0,VALID,98.7999,VALID,-0.0509425,VALID,18.242,VALID,126,VALID,0.744531,
2004-09-08, 00:03:00,VALID,918.708,VALID,0,VALID,98.3879,VALID,-0.0509425,VALID,18.2358,VALID,154,VALID,0.745066,
2004-09-08, 00:04:00,VALID,918.702,VALID,0,VALID,98.4235,VALID,-0.0679233,VALID,18.2748,VALID,151,VALID,1.01209,
2004-09-08, 00:05:00,VALID,918.683,VALID,0,VALID,98.1984,VALID,-0.0849042,VALID,18.2584,VALID,154,VALID,0.900195,
2004-09-08, 00:06:00,VALID,918.658,VALID,0,VALID,98.1399,VALID,-0.0849042,VALID,18.2619,VALID,159,VALID,0.690739,
2004-09-08, 00:07:00,VALID,918.649,VALID,0,VALID,98.0204,VALID,-0.0509425,VALID,18.2517,VALID,159,VALID,0.364211,
2004-09-08, 00:08:00,VALID,918.639,VALID,0,VALID,97.883,VALID,-0.0679233,VALID,18.236,VALID,158,VALID,0.505145,
2004-09-08, 00:09:00,VALID,918.628,VALID,0,VALID,97.7228,VALID,-0.0339617,VALID,18.1906,VALID,139,VALID,0.488567,
2004-09-08, 00:10:00,VALID,918.637,VALID,0,VALID,97.7457,VALID,-0.0849042,VALID,18.1648,VALID,131,VALID,0.51835,
2004-09-08, 00:11:00,VALID,918.633,VALID,0,VALID,98.2378,VALID,-0.0509425,VALID,18.1648,VALID,129,VALID,0.669398,
2004-09-08, 00:12:00,VALID,918.642,VALID,0,VALID,98.618,VALID,-0.0679233,VALID,18.1936,VALID,128,VALID,0.663504,
2004-09-08, 00:13:00,VALID,918.623,VALID,0,VALID,98.8533,VALID,-0.0339617,VALID,18.2455,VALID,126,VALID,0.519531,
2004-09-08, 00:14:00,VALID,918.614,VALID,0,VALID,98.899,VALID,-0.0849042,VALID,18.3105,VALID,126,VALID,0.42121,
2004-09-08, 00:15:00,VALID,918.599,VALID,0,VALID,98.7401,VALID,-0.0339617,VALID,18.3359,VALID,126,VALID,0.377976,
2004-09-08, 00:16:00,VALID,918.604,VALID,0,VALID,98.6409,VALID,-0.0169808,VALID,18.358,VALID,126,VALID,0.266897,
2004-09-08, 00:17:00,VALID,918.598,VALID,0,VALID,98.5239,VALID,-0.0679233,VALID,18.4007,VALID,126,VALID,0.311198,
2004-09-08, 00:18:00,VALID,918.617,VALID,0,VALID,98.1577,VALID,-0.0509425,VALID,18.3806,VALID,126,VALID,0.313889,
2004-09-08, 00:19:00,VALID,918.602,VALID,0,VALID,97.4494,VALID,-0.0679233,VALID,18.346,VALID,126,VALID,0.230378,
2004-09-08, 00:20:00,VALID,918.613,VALID,0,VALID,97.6274,VALID,-0.0339617,VALID,18.3038,VALID,120,VALID,0.366477,
2004-09-08, 00:21:00,VALID,918.608,VALID,0,VALID,98.4184,VALID,-0.0849042,VALID,18.3493,VALID,108,VALID,0.604651,
2004-09-08, 00:22:00,VALID,918.614,VALID,0,VALID,98.2098,VALID,-0.0339617,VALID,18.4002,VALID,108,VALID,0.440225,
2004-09-08, 00:23:00,VALID,918.616,VALID,0,VALID,98.0941,VALID,-0.0339617,VALID,18.4228,VALID,109,VALID,0.453307,
2004-09-08, 00:24:00,VALID,918.621,VALID,0,VALID,97.8678,VALID,-0.0509425,VALID,18.4454,VALID,110,VALID,0.395279,
2004-09-08, 00:25:00,VALID,918.617,VALID,0,VALID,97.6885,VALID,0,VALID,18.4678,VALID,119,VALID,0.489931,
2004-09-08, 00:26:00,VALID,918.607,VALID,0,VALID,96.9014,VALID,0,VALID,18.4385,VALID,93,VALID,0.387326,
2004-09-08, 00:27:00,VALID,918.626,VALID,0,VALID,96.7564,VALID,-0.0169808,VALID,18.3778,VALID,75,VALID,0.572621,
2004-09-08, 00:28:00,VALID,918.606,VALID,0,VALID,97.232,VALID,-0.0169808,VALID,18.3553,VALID,75,VALID,0.637173,
2004-09-08, 00:29:00,VALID,918.614,VALID,0,VALID,98.0547,VALID,-0.0339617,VALID,18.3813,VALID,76,VALID,0.68006,
2004-09-08, 00:30:00,VALID,918.609,VALID,0,VALID,98.4286,VALID,-0.0169808,VALID,18.429,VALID,81,VALID,0.570499,
2004-09-08, 00:31:00,VALID,918.608,VALID,0,VALID,98.3701,VALID,-0.0169808,VALID,18.471,VALID,90,VALID,0.640811,
2004-09-08, 00:32:00,VALID,918.605,VALID,0,VALID,98.2518,VALID,-0.0339617,VALID,18.5261,VALID,97,VALID,0.662972,
2004-09-08, 00:33:00,VALID,918.59,VALID,0,VALID,98.07,VALID,-0.0169808,VALID,18.5522,VALID,106,VALID,0.53776,
2004-09-08, 00:34:00,VALID,918.583,VALID,0,VALID,97.602,VALID,0,VALID,18.578,VALID,96,VALID,0.702172,
2004-09-08, 00:35:00,VALID,918.564,VALID,0,VALID,97.1264,VALID,-0.0169808,VALID,18.5194,VALID,72,VALID,1.14276,
2004-09-08, 00:36:00,VALID,918.557,VALID,0,VALID,97.2739,VALID,0,VALID,18.4966,VALID,67,VALID,1.18532,
2004-09-08, 00:37:00,VALID,918.531,VALID,0,VALID,97.2828,VALID,-0.0339617,VALID,18.4809,VALID,62,VALID,0.66654,
2004-09-08, 00:38:00,VALID,918.524,VALID,0,VALID,97.2409,VALID,0,VALID,18.4616,VALID,49,VALID,0.417773,
2004-09-08, 00:39:00,VALID,918.538,VALID,0,VALID,97.5893,VALID,-0.0339617,VALID,18.468,VALID,58,VALID,0.556868,
2004-09-08, 00:40:00,VALID,918.552,VALID,0,VALID,96.9738,VALID,0,VALID,18.4646,VALID,66,VALID,1.16667,
2004-09-08, 00:41:00,VALID,918.563,VALID,0,VALID,97.0908,VALID,0,VALID,18.4325,VALID,68,VALID,0.927684,
2004-09-08, 00:42:00,VALID,918.549,VALID,0,VALID,97.19,VALID,0,VALID,18.4194,VALID,68,VALID,0.55231,
2004-09-08, 00:43:00,VALID,918.563,VALID,0,VALID,97.3095,VALID,0,VALID,18.4004,VALID,73,VALID,0.577744,
2004-09-08, 00:44:00,VALID,918.563,VALID,0,VALID,96.8886,VALID,-0.0169808,VALID,18.3742,VALID,120,VALID,0.798692,
2004-09-08, 00:45:00,VALID,918.581,VALID,0,VALID,96.5822,VALID,-0.0339617,VALID,18.326,VALID,105,VALID,0.829013,
2004-09-08, 00:46:00,VALID,918.571,VALID,0,VALID,97.1811,VALID,-0.0339617,VALID,18.2519,VALID,104,VALID,0.960556,
2004-09-08, 00:47:00,VALID,918.574,VALID,0,VALID,97.7343,VALID,-0.0339617,VALID,18.2946,VALID,126,VALID,1.19922,
2004-09-08, 00:48:00,VALID,918.569,VALID,0,VALID,97.7432,VALID,-0.0509425,VALID,18.3001,VALID,135,VALID,1.25353,
2004-09-08, 00:49:00,VALID,918.536,VALID,0,VALID,97.6808,VALID,-0.0169808,VALID,18.3363,VALID,141,VALID,1.05964,
2004-09-08, 00:50:00,VALID,918.516,VALID,0,VALID,97.4863,VALID,-0.0169808,VALID,18.3262,VALID,140,VALID,1.03652,
2004-09-08, 00:51:00,VALID,918.479,VALID,0,VALID,97.5867,VALID,0,VALID,18.3426,VALID,140,VALID,0.999092,
2004-09-08, 00:52:00,VALID,918.467,VALID,0,VALID,97.3146,VALID,-0.0169808,VALID,18.3264,VALID,131,VALID,0.996701,
2004-09-08, 00:53:00,VALID,918.441,VALID,0,VALID,97.3782,VALID,-0.0169808,VALID,18.2909,VALID,129,VALID,0.959985,
2004-09-08, 00:54:00,VALID,918.445,VALID,0,VALID,97.1786,VALID,-0.0509425,VALID,18.2485,VALID,130,VALID,0.893787,
2004-09-08, 00:55:00,VALID,918.438,VALID,0,VALID,97.3884,VALID,-0.0169808,VALID,18.1973,VALID,130,VALID,1.00057,
2004-09-08, 00:56:00,VALID,918.426,VALID,0,VALID,97.8271,VALID,-0.0169808,VALID,18.1874,VALID,117,VALID,0.919876,
2004-09-08, 00:57:00,VALID,918.413,VALID,0,VALID,97.6618,VALID,-0.0339617,VALID,18.1874,VALID,120,VALID,0.964939,
2004-09-08, 00:58:00,VALID,918.413,VALID,0,VALID,97.6376,VALID,-0.0339617,VALID,18.1648,VALID,128,VALID,0.934126,
2004-09-08, 00:59:00,VALID,918.396,VALID,0,VALID,97.986,VALID,-0.0169808,VALID,18.1712,VALID,126,VALID,1.0198,
2004-09-08, 01:00:00,VALID,918.376,VALID,0,VALID,97.9123,VALID,-0.0339617,VALID,18.1742,VALID,124,VALID,0.421007,
2004-09-08, 01:01:00,VALID,918.359,VALID,0,VALID,97.9733,VALID,-0.0169808,VALID,18.165,VALID,117,VALID,0.620236,
2004-09-08, 01:02:00,VALID,918.365,VALID,0,VALID,98.1157,VALID,-0.0339617,VALID,18.1613,VALID,134,VALID,0.79516,
2004-09-08, 01:03:00,VALID,918.366,VALID,0,VALID,98.1628,VALID,-0.0339617,VALID,18.1549,VALID,131,VALID,0.936012,
2004-09-08, 01:04:00,VALID,918.362,VALID,0,VALID,98.412,VALID,-0.0169808,VALID,18.171,VALID,128,VALID,0.775977,
2004-09-08, 01:05:00,VALID,918.353,VALID,0,VALID,98.543,VALID,-0.0169808,VALID,18.2192,VALID,110,VALID,0.578869,
2004-09-08, 01:06:00,VALID,918.353,VALID,0,VALID,98.4667,VALID,-0.0339617,VALID,18.2552,VALID,106,VALID,0.532012,
2004-09-08, 01:07:00,VALID,918.348,VALID,0,VALID,98.384,VALID,-0.0679233,VALID,18.2872,VALID,105,VALID,0.463315,
2004-09-08, 01:08:00,VALID,918.35,VALID,0,VALID,98.1997,VALID,-0.0679233,VALID,18.3098,VALID,104,VALID,0.490699,
2004-09-08, 01:09:00,VALID,918.357,VALID,0,VALID,98.1475,VALID,0,VALID,18.3391,VALID,104,VALID,0.569767,
2004-09-08, 01:10:00,VALID,918.353,VALID,0,VALID,98.0026,VALID,-0.0169808,VALID,18.3744,VALID,113,VALID,0.738839,
2004-09-08, 01:11:00,VALID,918.365,VALID,0,VALID,97.471,VALID,0,VALID,18.394,VALID,115,VALID,0.559482,
2004-09-08, 01:12:00,VALID,918.383,VALID,0,VALID,97.1964,VALID,0,VALID,18.3746,VALID,117,VALID,0.770275,
2004-09-08, 01:13:00,VALID,918.365,VALID,0,VALID,97.1887,VALID,0,VALID,18.3612,VALID,119,VALID,0.445964,
2004-09-08, 01:14:00,VALID,918.363,VALID,0,VALID,97.3312,VALID,-0.0339617,VALID,18.3716,VALID,119,VALID,0.442708,
2004-09-08, 01:15:00,VALID,918.338,VALID,0,VALID,96.8925,VALID,0,VALID,18.3516,VALID,119,VALID,0.487109,
2004-09-08, 01:16:00,VALID,918.332,VALID,0,VALID,97.1201,VALID,0,VALID,18.3391,VALID,119,VALID,0.501598,
2004-09-08, 01:17:00,VALID,918.295,VALID,0,VALID,96.5606,VALID,0,VALID,18.2937,VALID,119,VALID,0.437863,
2004-09-08, 01:18:00,VALID,918.286,VALID,0,VALID,95.2343,VALID,0,VALID,18.1231,VALID,88,VALID,0.66673,
2004-09-08, 01:19:00,VALID,918.287,VALID,0,VALID,94.1649,VALID,0,VALID,17.8448,VALID,71,VALID,0.468576,
2004-09-08, 01:20:00,VALID,918.281,VALID,0,VALID,95.1771,VALID,0,VALID,17.6642,VALID,66,VALID,0.541266,
2004-09-08, 01:21:00,VALID,918.286,VALID,0,VALID,96.146,VALID,0.0169808,VALID,17.5775,VALID,54,VALID,0.733613,
2004-09-08, 01:22:00,VALID,918.286,VALID,0,VALID,96.8581,VALID,0,VALID,17.5001,VALID,51,VALID,0.643945,
2004-09-08, 01:23:00,VALID,918.255,VALID,0,VALID,97.8004,VALID,0,VALID,17.4773,VALID,51,VALID,0.469703,
2004-09-08, 01:24:00,VALID,918.244,VALID,0,VALID,98.2899,VALID,0.0169808,VALID,17.4932,VALID,51,VALID,0.0531631,
2004-09-08, 01:25:00,VALID,918.223,VALID,0,VALID,98.1577,VALID,-0.0169808,VALID,17.4713,VALID,69,VALID,0.427684,
2004-09-08, 01:26:00,VALID,918.214,VALID,0,VALID,98.3205,VALID,0,VALID,17.4256,VALID,135,VALID,0.700284,
2004-09-08, 01:27:00,VALID,918.191,VALID,0,VALID,98.6714,VALID,-0.0169808,VALID,17.4261,VALID,136,VALID,0.992001,
2004-09-08, 01:28:00,VALID,918.173,VALID,0,VALID,99.0923,VALID,-0.0339617,VALID,17.4487,VALID,138,VALID,0.849848,
2004-09-08, 01:29:00,VALID,918.166,VALID,0,VALID,99.2386,VALID,0,VALID,17.4908,VALID,146,VALID,0.730196,
2004-09-08, 01:30:00,VALID,918.157,VALID,0,VALID,99.3861,VALID,-0.0169808,VALID,17.5199,VALID,143,VALID,0.963068,
2004-09-08, 01:31:00,VALID,918.151,VALID,0,VALID,99.6862,VALID,-0.0169808,VALID,17.5709,VALID,140,VALID,1.00036,
2004-09-08, 01:32:00,VALID,918.142,VALID,0,VALID,99.8858,VALID,-0.0339617,VALID,17.6453,VALID,145,VALID,1.05156,
2004-09-08, 01:33:00,VALID,918.138,VALID,0,VALID,99.6633,VALID,-0.0169808,VALID,17.6903,VALID,148,VALID,0.75279,
2004-09-08, 01:34:00,VALID,918.132,VALID,0,VALID,99.5221,VALID,-0.0339617,VALID,17.7228,VALID,159,VALID,0.509301,
2004-09-08, 01:35:00,VALID,918.131,VALID,0,VALID,99.1699,VALID,-0.0169808,VALID,17.7262,VALID,147,VALID,0.547991,
2004-09-08, 01:36:00,VALID,918.118,VALID,0,VALID,98.9575,VALID,-0.0339617,VALID,17.6804,VALID,143,VALID,0.755394,
2004-09-08, 01:37:00,VALID,918.108,VALID,0,VALID,99.1902,VALID,-0.0339617,VALID,17.7103,VALID,156,VALID,0.898251,
2004-09-08, 01:38:00,VALID,918.114,VALID,0,VALID,99.3657,VALID,-0.0339617,VALID,17.7553,VALID,156,VALID,0.489901,
2004-09-08, 01:39:00,VALID,918.093,VALID,0,VALID,98.8355,VALID,-0.0339617,VALID,17.7488,VALID,156,VALID,0.431597,
2004-09-08, 01:40:00,VALID,918.087,VALID,0,VALID,98.3383,VALID,-0.0339617,VALID,17.7136,VALID,156,VALID,0.405248,
2004-09-08, 01:41:00,VALID,918.093,VALID,0,VALID,98.2302,VALID,-0.0169808,VALID,17.652,VALID,156,VALID,0.185369,
2004-09-08, 01:42:00,VALID,918.074,VALID,0,VALID,98.0471,VALID,-0.0169808,VALID,17.6193,VALID,156,VALID,0.397837,
2004-09-08, 01:43:00,VALID,918.066,VALID,0,VALID,98.1539,VALID,-0.0169808,VALID,17.5943,VALID,156,VALID,0.553354,
2004-09-08, 01:44:00,VALID,918.05,VALID,0,VALID,98.3167,VALID,-0.0169808,VALID,17.5812,VALID,155,VALID,0.575521,
2004-09-08, 01:45:00,VALID,918.044,VALID,0,VALID,98.4832,VALID,0,VALID,17.5844,VALID,141,VALID,0.804688,
2004-09-08, 01:46:00,VALID,918.05,VALID,0,VALID,98.7503,VALID,-0.0339617,VALID,17.5907,VALID,142,VALID,0.967842,
2004-09-08, 01:47:00,VALID,918.034,VALID,0,VALID,99.1775,VALID,-0.0339617,VALID,17.652,VALID,156,VALID,1.21538,
2004-09-08, 01:48:00,VALID,918.023,VALID,0,VALID,99.2742,VALID,-0.0509425,VALID,17.7034,VALID,146,VALID,1.15195,
2004-09-08, 01:49:00,VALID,918.004,VALID,0,VALID,99.2843,VALID,-0.0509425,VALID,17.7555,VALID,148,VALID,0.968178,
2004-09-08, 01:50:00,VALID,917.993,VALID,0,VALID,99.0224,VALID,-0.0339617,VALID,17.7813,VALID,141,VALID,1.00934,
2004-09-08, 01:51:00,VALID,917.993,VALID,0,VALID,98.8609,VALID,-0.0169808,VALID,17.7977,VALID,133,VALID,0.919588,
2004-09-08, 01:52:00,VALID,917.988,VALID,0,VALID,98.9334,VALID,0,VALID,17.7841,VALID,137,VALID,1.13205,
2004-09-08, 01:53:00,VALID,917.972,VALID,0,VALID,98.7375,VALID,0,VALID,17.8007,VALID,136,VALID,0.866832,
2004-09-08, 01:54:00,VALID,917.98,VALID,0,VALID,98.6485,VALID,-0.0169808,VALID,17.7749,VALID,134,VALID,0.834121,
2004-09-08, 01:55:00,VALID,917.981,VALID,0,VALID,98.4909,VALID,-0.0339617,VALID,17.7555,VALID,132,VALID,0.60061,
2004-09-08, 01:56:00,VALID,917.964,VALID,0,VALID,98.178,VALID,-0.0339617,VALID,17.6843,VALID,123,VALID,0.553757,
2004-09-08, 01:57:00,VALID,917.95,VALID,0,VALID,98.2976,VALID,-0.0169808,VALID,17.6552,VALID,105,VALID,0.475472,
2004-09-08, 01:58:00,VALID,917.937,VALID,0,VALID,97.9924,VALID,-0.0169808,VALID,17.581,VALID,68,VALID,0.742759,
2004-09-08, 01:59:00,VALID,917.933,VALID,0,VALID,97.8538,VALID,-0.0169808,VALID,17.4969,VALID,56,VALID,1.19549,
2004-09-08, 02:00:00,VALID,917.902,VALID,0,VALID,98.1755,VALID,0.0169808,VALID,17.4586,VALID,52,VALID,1.34889,
2004-09-08, 02:01:00,VALID,917.889,VALID,0,VALID,98.8151,VALID,0,VALID,17.4745,VALID,51,VALID,1.12517,
2004-09-08, 02:02:00,VALID,917.888,VALID,0,VALID,98.9372,VALID,0,VALID,17.5003,VALID,62,VALID,1.04706,
2004-09-08, 02:03:00,VALID,917.887,VALID,0,VALID,99.0415,VALID,-0.0169808,VALID,17.5003,VALID,65,VALID,1.125,
2004-09-08, 02:04:00,VALID,917.891,VALID,0,VALID,99.3517,VALID,-0.0339617,VALID,17.5395,VALID,68,VALID,1.14807,
2004-09-08, 02:05:00,VALID,917.892,VALID,0,VALID,99.648,VALID,-0.0169808,VALID,17.587,VALID,84,VALID,0.838021,
2004-09-08, 02:06:00,VALID,917.912,VALID,0,VALID,99.3136,VALID,-0.0169808,VALID,17.6195,VALID,74,VALID,0.605469,
2004-09-08, 02:07:00,VALID,917.904,VALID,0,VALID,99.002,VALID,-0.0339617,VALID,17.607,VALID,74,VALID,1.02587,
2004-09-08, 02:08:00,VALID,917.891,VALID,0,VALID,98.8749,VALID,0.0169808,VALID,17.5644,VALID,64,VALID,1.23562,
2004-09-08, 02:09:00,VALID,917.861,VALID,0,VALID,98.5519,VALID,-0.0169808,VALID,17.5358,VALID,52,VALID,0.716602,
2004-09-08, 02:10:00,VALID,917.847,VALID,0,VALID,97.9886,VALID,-0.0169808,VALID,17.462,VALID,61,VALID,1.0984,
2004-09-08, 02:11:00,VALID,917.829,VALID,0,VALID,98.2747,VALID,-0.0339617,VALID,17.3807,VALID,58,VALID,1.59063,
2004-09-08, 02:12:00,VALID,917.819,VALID,0,VALID,99.147,VALID,-0.0509425,VALID,17.4138,VALID,65,VALID,1.46361,
2004-09-08, 02:13:00,VALID,917.782,VALID,0,VALID,99.6378,VALID,-0.0339617,VALID,17.4652,VALID,66,VALID,0.844113,
2004-09-08, 02:14:00,VALID,917.76,VALID,0,VALID,99.7129,VALID,-0.0339617,VALID,17.4749,VALID,82,VALID,0.81321,
2004-09-08, 02:15:00,VALID,917.738,VALID,0,VALID,99.6531,VALID,-0.0339617,VALID,17.4881,VALID,70,VALID,1.48212,
2004-09-08, 02:16:00,VALID,917.701,VALID,0,VALID,99.5285,VALID,-0.101885,VALID,17.4685,VALID,71,VALID,1.31864,
2004-09-08, 02:17:00,VALID,917.672,VALID,0,VALID,99.5005,VALID,-0.0679233,VALID,17.4558,VALID,70,VALID,1.13118,
2004-09-08, 02:18:00,VALID,917.653,VALID,0,VALID,99.6646,VALID,-0.0509425,VALID,17.4493,VALID,78,VALID,1.22402,
2004-09-08, 02:19:00,VALID,917.621,VALID,0,VALID,99.6989,VALID,-0.0679233,VALID,17.4618,VALID,76,VALID,0.921875,
2004-09-08, 02:20:00,VALID,917.611,VALID,0,VALID,99.6391,VALID,-0.0339617,VALID,17.4422,VALID,82,VALID,1.10938,
2004-09-08, 02:21:00,VALID,917.608,VALID,0,VALID,99.9891,VALID,-0.0679233,VALID,17.4941,VALID,102,VALID,1.13139,
2004-09-08, 02:22:00,VALID,917.599,VALID,0,VALID,99.7739,VALID,-0.0509425,VALID,17.5362,VALID,84,VALID,1.06161,
2004-09-08, 02:23:00,VALID,917.619,VALID,0,VALID,99.4179,VALID,-0.0339617,VALID,17.5399,VALID,90,VALID,0.844658,
2004-09-08, 02:24:00,VALID,917.622,VALID,0,VALID,99.3835,VALID,-0.0509425,VALID,17.53,VALID,104,VALID,0.960938,
2004-09-08, 02:25:00,VALID,917.63,VALID,0,VALID,99.3644,VALID,-0.0509425,VALID,17.5197,VALID,124,VALID,1.13045,
2004-09-08, 02:26:00,VALID,917.635,VALID,0,VALID,99.2754,VALID,-0.0849042,VALID,17.5173,VALID,114,VALID,0.940476,
2004-09-08, 02:27:00,VALID,917.664,VALID,0,VALID,99.3759,VALID,-0.101885,VALID,17.5104,VALID,95,VALID,0.731468,
2004-09-08, 02:28:00,VALID,917.687,VALID,0,VALID,99.4954,VALID,-0.0509425,VALID,17.5233,VALID,97,VALID,0.941501,
2004-09-08, 02:29:00,VALID,917.696,VALID,0,VALID,99.6798,VALID,-0.0509425,VALID,17.5558,VALID,113,VALID,1.03854,
2004-09-08, 02:30:00,VALID,917.708,VALID,0,VALID,99.662,VALID,-0.0679233,VALID,17.5946,VALID,113,VALID,0.925114,
2004-09-08, 02:31:00,VALID,917.725,VALID,0,VALID,99.353,VALID,-0.0509425,VALID,17.6008,VALID,113,VALID,0.460243,
2004-09-08, 02:32:00,VALID,917.717,VALID,0,VALID,99.0783,VALID,-0.0849042,VALID,17.5883,VALID,116,VALID,0.401155,
2004-09-08, 02:33:00,VALID,917.724,VALID,0,VALID,98.9232,VALID,-0.0849042,VALID,17.5556,VALID,115,VALID,0.178925,
2004-09-08, 02:34:00,VALID,917.716,VALID,0,VALID,98.7197,VALID,0,VALID,17.5102,VALID,83,VALID,0.310976,
2004-09-08, 02:35:00,VALID,917.72,VALID,0,VALID,98.8698,VALID,-0.0679233,VALID,17.4747,VALID,75,VALID,0.171289,
2004-09-08, 02:36:00,VALID,917.73,VALID,0,VALID,98.8533,VALID,-0.0679233,VALID,17.4721,VALID,75,VALID,0.0127668,
2004-09-08, 02:37:00,VALID,917.733,VALID,0,VALID,98.7363,VALID,-0.0679233,VALID,17.4392,VALID,75,VALID,0,
2004-09-08, 02:38:00,VALID,917.746,VALID,0,VALID,98.707,VALID,-0.0509425,VALID,17.4203,VALID,75,VALID,0,
2004-09-08, 02:39:00,VALID,917.75,VALID,0,VALID,98.6078,VALID,-0.0509425,VALID,17.3813,VALID,75,VALID,0.246094,
2004-09-08, 02:40:00,VALID,917.756,VALID,0,VALID,97.335,VALID,-0.0169808,VALID,17.1935,VALID,75,VALID,0.427083,
2004-09-08, 02:41:00,VALID,917.755,VALID,0,VALID,97.1849,VALID,-0.0679233,VALID,17.0358,VALID,74,VALID,0.347396,
2004-09-08, 02:42:00,VALID,917.746,VALID,0,VALID,97.9898,VALID,-0.0509425,VALID,17.0102,VALID,74,VALID,0.143415,
2004-09-08, 02:43:00,VALID,917.741,VALID,0,VALID,98.3726,VALID,-0.0679233,VALID,16.9878,VALID,74,VALID,0,
2004-09-08, 02:44:00,VALID,917.743,VALID,0,VALID,98.5087,VALID,-0.0339617,VALID,16.9749,VALID,74,VALID,0.248935,
2004-09-08, 02:45:00,VALID,917.763,VALID,0,VALID,97.8551,VALID,-0.0509425,VALID,16.8518,VALID,37,VALID,0.694046,
2004-09-08, 02:46:00,VALID,917.762,VALID,0,VALID,98.3675,VALID,-0.0169808,VALID,16.8099,VALID,36,VALID,0.544969,
2004-09-08, 02:47:00,VALID,917.775,VALID,0,VALID,99.0745,VALID,-0.0339617,VALID,16.8486,VALID,27,VALID,0.457114,
2004-09-08, 02:48:00,VALID,917.784,VALID,0,VALID,99.3772,VALID,-0.0339617,VALID,16.8904,VALID,23,VALID,0.555259,
2004-09-08, 02:49:00,VALID,917.785,VALID,0,VALID,98.7693,VALID,-0.0679233,VALID,16.7942,VALID,23,VALID,0.634722,
2004-09-08, 02:50:00,VALID,917.792,VALID,0,VALID,99.2564,VALID,-0.0509425,VALID,16.8013,VALID,23,VALID,0.451172,
2004-09-08, 02:51:00,VALID,917.784,VALID,0,VALID,99.6849,VALID,-0.0339617,VALID,16.8396,VALID,23,VALID,0.290334,
2004-09-08, 02:52:00,VALID,917.763,VALID,0,VALID,99.9977,VALID,-0.0679233,VALID,16.92,VALID,23,VALID,0.327753,
2004-09-08, 02:53:00,VALID,917.794,VALID,0,VALID,99.7721,VALID,-0.0339617,VALID,16.9007,VALID,23,VALID,0.607851,
2004-09-08, 02:54:00,VALID,917.81,VALID,0,VALID,99.3339,VALID,-0.0849042,VALID,16.8015,VALID,23,VALID,0.887767,
2004-09-08, 02:55:00,VALID,917.804,VALID,0,VALID,99.9725,VALID,-0.0509425,VALID,16.8626,VALID,23,VALID,0.736235,
2004-09-08, 02:56:00,VALID,917.82,VALID,0,VALID,100,VALID,-0.0849042,VALID,16.9269,VALID,23,VALID,0.583757,
2004-09-08, 02:57:00,VALID,917.814,VALID,0,VALID,100,VALID,-0.0339617,VALID,16.9529,VALID,40,VALID,0.921875,
2004-09-08, 02:58:00,VALID,917.809,VALID,0,VALID,100,VALID,-0.0339617,VALID,17.0358,VALID,55,VALID,1.1229,
2004-09-08, 02:59:00,VALID,917.797,VALID,0,VALID,100,VALID,-0.0509425,VALID,17.1591,VALID,64,VALID,1.08166,
2004-09-08, 03:00:00,VALID,917.756,VALID,0,VALID,100,VALID,-0.0679233,VALID,17.2654,VALID,65,VALID,0.965661,
2004-09-08, 03:01:00,VALID,917.731,VALID,0,VALID,100,VALID,-0.0849042,VALID,17.3656,VALID,65,VALID,0.851563,
2004-09-08, 03:02:00,VALID,917.724,VALID,0,VALID,100,VALID,-0.0679233,VALID,17.3947,VALID,65,VALID,0.813408,
2004-09-08, 03:03:00,VALID,917.728,VALID,0,VALID,100,VALID,-0.0679233,VALID,17.4016,VALID,71,VALID,0.730196,
2004-09-08, 03:04:01,VALID,917.723,VALID,0,VALID,100,VALID,-0.101885,VALID,17.4078,VALID,83,VALID,0.783008,
2004-09-08, 03:05:01,VALID,917.721,VALID,0,VALID,100,VALID,-0.0849042,VALID,17.447,VALID,84,VALID,0.832961,
2004-09-08, 03:06:00,VALID,917.716,VALID,0,VALID,99.9875,VALID,-0.0169808,VALID,17.4719,VALID,96,VALID,0.646094,
2004-09-08, 03:07:00,VALID,917.726,VALID,0,VALID,99.559,VALID,-0.0849042,VALID,17.4112,VALID,127,VALID,0.732525,
2004-09-08, 03:08:00,VALID,917.748,VALID,0,VALID,99.2856,VALID,-0.0509425,VALID,17.3235,VALID,132,VALID,1.00781,
2004-09-08, 03:09:00,VALID,917.765,VALID,0,VALID,99.2882,VALID,-0.0849042,VALID,17.2757,VALID,131,VALID,0.863554,
2004-09-08, 03:10:00,VALID,917.788,VALID,0,VALID,99.3632,VALID,-0.0509425,VALID,17.2563,VALID,152,VALID,0.305398,
2004-09-08, 03:11:00,VALID,917.816,VALID,0,VALID,99.442,VALID,-0.0339617,VALID,17.2202,VALID,163,VALID,0.681836,
2004-09-08, 03:12:00,VALID,917.819,VALID,0,VALID,99.7612,VALID,-0.0169808,VALID,17.2389,VALID,164,VALID,0.842949,
2004-09-08, 03:13:00,VALID,917.83,VALID,0,VALID,99.7637,VALID,-0.0339617,VALID,17.2623,VALID,151,VALID,0.856585,
2004-09-08, 03:14:00,VALID,917.838,VALID,0,VALID,99.6824,VALID,-0.0339617,VALID,17.2623,VALID,145,VALID,0.827753,
2004-09-08, 03:15:00,VALID,917.835,VALID,0,VALID,99.5425,VALID,-0.0339617,VALID,17.2488,VALID,143,VALID,0.784412,
2004-09-08, 03:16:00,VALID,917.848,VALID,0,VALID,99.4776,VALID,-0.0679233,VALID,17.2301,VALID,138,VALID,0.854968,
2004-09-08, 03:17:00,VALID,917.836,VALID,0,VALID,99.512,VALID,-0.0339617,VALID,17.2008,VALID,138,VALID,0.908296,
2004-09-08, 03:18:01,VALID,917.823,VALID,0,VALID,99.7205,VALID,-0.0509425,VALID,17.1946,VALID,126,VALID,0.887835,
2004-09-08, 03:19:00,VALID,917.815,VALID,0,VALID,99.7904,VALID,-0.0169808,VALID,17.2077,VALID,114,VALID,0.744048,
2004-09-08, 03:20:00,VALID,917.793,VALID,0,VALID,99.6849,VALID,-0.0169808,VALID,17.1814,VALID,130,VALID,0.711825,
2004-09-08, 03:21:01,VALID,917.794,VALID,0,VALID,99.6798,VALID,-0.0339617,VALID,17.1754,VALID,137,VALID,0.767933,
2004-09-08, 03:22:00,VALID,917.804,VALID,0,VALID,99.751,VALID,-0.0169808,VALID,17.1621,VALID,142,VALID,0.966518,
2004-09-08, 03:23:00,VALID,917.815,VALID,0,VALID,99.8324,VALID,-0.0169808,VALID,17.169,VALID,135,VALID,1.54403,
2004-09-08, 03:24:00,VALID,917.812,VALID,0,VALID,99.7587,VALID,-0.0339617,VALID,17.1754,VALID,131,VALID,1.47456,
2004-09-08, 03:25:01,VALID,917.798,VALID,0,VALID,99.8909,VALID,-0.0509425,VALID,17.1849,VALID,140,VALID,1.74323,
2004-09-08, 03:26:01,VALID,917.804,VALID,0,VALID,99.9036,VALID,-0.0679233,VALID,17.2268,VALID,133,VALID,1.65885,
2004-09-08, 03:27:00,VALID,917.802,VALID,0,VALID,99.765,VALID,-0.0169808,VALID,17.2593,VALID,134,VALID,1.21621,
2004-09-08, 03:28:00,VALID,917.826,VALID,0,VALID,99.5285,VALID,-0.0679233,VALID,17.2522,VALID,132,VALID,1.24272,
2004-09-08, 03:29:00,VALID,917.827,VALID,0,VALID,99.5196,VALID,-0.0339617,VALID,17.2718,VALID,122,VALID,1.40552,
2004-09-08, 03:30:00,VALID,917.824,VALID,0,VALID,99.4077,VALID,-0.0679233,VALID,17.2819,VALID,122,VALID,1.37555,
2004-09-08, 03:31:00,VALID,917.819,VALID,0,VALID,99.1203,VALID,-0.101885,VALID,17.2916,VALID,103,VALID,1.06417,